EN

Hourly Weather Lago Titicaca

Today, 28 July, Wednesday

Time Temperature Precipitation Wind Pressure Humidity
00:00 +5°C° 0 mm 2 mps 478 mmHg 80%
01:00 +6°C° 0 mm 1 mps 478 mmHg 84%
02:00 +5°C° 0 mm 1 mps 478 mmHg 83%
03:00 +5°C° 0 mm 1 mps 478 mmHg 82%
04:00 +5°C° 0 mm 1 mps 477 mmHg 81%
05:00 +4°C° 0 mm 2 mps 478 mmHg 75%
06:00 +4°C° 0 mm 2 mps 478 mmHg 68%
07:00 +5°C° 0 mm 2 mps 479 mmHg 61%
08:00 +6°C° 0 mm 2 mps 479 mmHg 56%
09:00 +8°C° 0 mm 2 mps 480 mmHg 50%
10:00 +9°C° 0 mm 3 mps 480 mmHg 45%
11:00 +10°C° 0 mm 3 mps 480 mmHg 44%
12:00 +10°C° 0 mm 3 mps 479 mmHg 44%
13:00 +11°C° 0 mm 3 mps 479 mmHg 43%
14:00 +11°C° 0 mm 4 mps 479 mmHg 46%
15:00 +10°C° 0 mm 5 mps 478 mmHg 48%
16:00 +10°C° 0 mm 5 mps 478 mmHg 51%
17:00 +8°C° 0 mm 6 mps 477 mmHg 62%
18:00 +5°C° 0 mm 6 mps 477 mmHg 74%
19:00 +4°C° 0 mm 7 mps 477 mmHg 85%
20:00 +3°C° 0 mm 6 mps 477 mmHg 86%
21:00 +3°C° 0 mm 5 mps 477 mmHg 88%
22:00 +3°C° 0 mm 3 mps 478 mmHg 89%
23:00 +4°C° 0 mm 3 mps 477 mmHg 87%

Tomorrow, 29 July, Thursday

Time Temperature Precipitation Wind Pressure Humidity
00:00 +4°C° 0 mm 3 mps 477 mmHg 85%
01:00 +4°C° 0 mm 3 mps 477 mmHg 84%
02:00 +3°C° 0 mm 3 mps 477 mmHg 82%
03:00 +4°C° 0 mm 2 mps 477 mmHg 81%
04:00 +4°C° 0 mm 2 mps 477 mmHg 79%
05:00 +4°C° 0 mm 2 mps 477 mmHg 75%
06:00 +6°C° 0 mm 1 mps 478 mmHg 72%
07:00 +6°C° 0 mm 1 mps 478 mmHg 68%
08:00 +7°C° 0 mm 1 mps 478 mmHg 63%
09:00 +8°C° 0 mm 1 mps 479 mmHg 59%
10:00 +9°C° 0 mm 1 mps 479 mmHg 54%
11:00 +10°C° 0 mm 1 mps 479 mmHg 54%
12:00 +9°C° 0 mm 2 mps 479 mmHg 53%
13:00 +10°C° 0 mm 3 mps 479 mmHg 52%
14:00 +10°C° 0 mm 3 mps 478 mmHg 50%
15:00 +11°C° 0 mm 4 mps 478 mmHg 47%
16:00 +11°C° 0 mm 4 mps 478 mmHg 45%
17:00 +8°C° 0 mm 5 mps 477 mmHg 57%
18:00 +7°C° 0 mm 5 mps 477 mmHg 68%
19:00 +4°C° 0 mm 6 mps 477 mmHg 80%
20:00 +5°C° 0 mm 5 mps 477 mmHg 82%
21:00 +4°C° 0 mm 3 mps 477 mmHg 83%
22:00 +5°C° 0 mm 2 mps 478 mmHg 85%
23:00 +5°C° 0 mm 2 mps 477 mmHg 84%

Day after tomorrow, 30 July, Friday

Time Temperature Precipitation Wind Pressure Humidity
00:00 +5°C° 0 mm 2 mps 477 mmHg 84%
01:00 +4°C° 0 mm 2 mps 477 mmHg 83%
02:00 +4°C° 0 mm 2 mps 477 mmHg 82%
03:00 +5°C° 0 mm 1 mps 477 mmHg 82%
04:00 +5°C° 0 mm 1 mps 477 mmHg 81%
05:00 +5°C° 0 mm 1 mps 477 mmHg 78%
06:00 +5°C° 0 mm 1 mps 478 mmHg 75%
07:00 +5°C° 0 mm 1 mps 478 mmHg 72%
08:00 +7°C° 0 mm 1 mps 479 mmHg 66%
09:00 +9°C° 0 mm 1 mps 479 mmHg 60%
10:00 +10°C° 0 mm 1 mps 480 mmHg 54%
11:00 +10°C° 0 mm 2 mps 479 mmHg 52%
12:00 +10°C° 0 mm 2 mps 479 mmHg 50%
13:00 +11°C° 0 mm 3 mps 478 mmHg 48%
14:00 +11°C° 0 mm 4 mps 478 mmHg 50%
15:00 +10°C° 0 mm 5 mps 478 mmHg 52%
16:00 +10°C° 0 mm 6 mps 477 mmHg 55%
17:00 +8°C° 0 mm 6 mps 477 mmHg 64%
18:00 +5°C° 0 mm 7 mps 477 mmHg 74%
19:00 +4°C° 0 mm 7 mps 477 mmHg 83%
20:00 +3°C° 0 mm 6 mps 477 mmHg 84%
21:00 +4°C° 0 mm 4 mps 477 mmHg 85%
22:00 +4°C° 0 mm 3 mps 478 mmHg 86%
23:00 +4°C° 0 mm 3 mps 478 mmHg 86%

31 July, Saturday

Time Temperature Precipitation Wind Pressure Humidity
00:00 +4°C° 0 mm 3 mps 478 mmHg 86%
01:00 +4°C° 0 mm 2 mps 477 mmHg 86%
02:00 +4°C° 0 mm 2 mps 477 mmHg 86%
03:00 +4°C° 0 mm 2 mps 477 mmHg 86%
04:00 +3°C° 0 mm 2 mps 477 mmHg 86%
05:00 +4°C° 0 mm 2 mps 478 mmHg 83%
06:00 +4°C° 0 mm 3 mps 478 mmHg 80%
07:00 +4°C° 0 mm 3 mps 478 mmHg 77%
08:00 +7°C° 0 mm 3 mps 479 mmHg 68%
09:00 +7°C° 0 mm 4 mps 480 mmHg 58%
10:00 +10°C° 0 mm 4 mps 480 mmHg 49%
11:00 +10°C° 0 mm 4 mps 480 mmHg 47%
12:00 +11°C° 0 mm 3 mps 480 mmHg 45%
13:00 +12°C° 0 mm 3 mps 479 mmHg 43%
14:00 +11°C° 0 mm 4 mps 479 mmHg 46%
15:00 +10°C° 0 mm 5 mps 478 mmHg 49%
16:00 +10°C° 0 mm 6 mps 478 mmHg 53%
17:00 +8°C° 0.1 mm 6 mps 478 mmHg 62%
18:00 +7°C° 0.1 mm 6 mps 478 mmHg 71%
19:00 +4°C° 0.1 mm 6 mps 479 mmHg 80%
20:00 +5°C° 0 mm 5 mps 479 mmHg 81%
21:00 +5°C° 0 mm 5 mps 479 mmHg 83%
22:00 +4°C° 0 mm 4 mps 479 mmHg 85%
23:00 +4°C° 0 mm 3 mps 479 mmHg 86%

1 August, Sunday

Time Temperature Precipitation Wind Pressure Humidity
00:00 +4°C° 0 mm 3 mps 479 mmHg 86%
01:00 +4°C° 0 mm 2 mps 479 mmHg 87%
02:00 +4°C° 0 mm 2 mps 479 mmHg 87%
03:00 +3°C° 0 mm 3 mps 478 mmHg 86%
04:00 +2°C° 0 mm 3 mps 478 mmHg 86%
05:00 +3°C° 0 mm 4 mps 479 mmHg 84%
06:00 +3°C° 0 mm 4 mps 479 mmHg 82%
07:00 +2°C° 0 mm 5 mps 479 mmHg 81%
08:00 +3°C° 0 mm 5 mps 480 mmHg 77%
09:00 +5°C° 0 mm 5 mps 480 mmHg 72%
10:00 +6°C° 0 mm 4 mps 481 mmHg 68%
11:00 +6°C° 0 mm 5 mps 480 mmHg 67%
12:00 +7°C° 0 mm 5 mps 480 mmHg 65%
13:00 +7°C° 0 mm 6 mps 480 mmHg 63%
14:00 +7°C° 0.1 mm 6 mps 479 mmHg 67%
15:00 +5°C° 0.1 mm 7 mps 479 mmHg 72%
16:00 +4°C° 0.1 mm 7 mps 478 mmHg 76%
17:00 +3°C° 0.2 mm 7 mps 478 mmHg 81%
18:00 +3°C° 0.2 mm 7 mps 478 mmHg 85%
19:00 +2°C° 0.2 mm 6 mps 479 mmHg 90%
20:00 +1°C° 1.3 mm 5 mps 479 mmHg 92%
21:00 +1°C° 1.3 mm 4 mps 479 mmHg 94%
22:00 +1°C° 1.3 mm 3 mps 480 mmHg 95%
23:00 +1°C° 0.3 mm 3 mps 479 mmHg 94%

2 August, Monday

Time Temperature Precipitation Wind Pressure Humidity
00:00 +2°C° 0.3 mm 3 mps 479 mmHg 92%
01:00 +3°C° 0.3 mm 2 mps 479 mmHg 91%
02:00 +3°C° 0 mm 2 mps 479 mmHg 89%
03:00 +3°C° 0 mm 2 mps 479 mmHg 86%
04:00 +4°C° 0 mm 1 mps 479 mmHg 84%
05:00 +4°C° 0 mm 1 mps 479 mmHg 84%
06:00 +3°C° 0 mm 2 mps 480 mmHg 83%
07:00 +3°C° 0 mm 2 mps 480 mmHg 83%
08:00 +4°C° 0 mm 2 mps 480 mmHg 80%
09:00 +4°C° 0 mm 2 mps 481 mmHg 78%
10:00 +5°C° 0 mm 2 mps 481 mmHg 75%
11:00 +6°C° 0 mm 2 mps 481 mmHg 72%
12:00 +5°C° 0 mm 3 mps 481 mmHg 70%
13:00 +7°C° 0 mm 3 mps 480 mmHg 68%
14:00 +6°C° 0 mm 4 mps 480 mmHg 67%
15:00 +6°C° 0 mm 5 mps 479 mmHg 66%
16:00 +5°C° 0 mm 6 mps 479 mmHg 66%
17:00 +4°C° 0.1 mm 6 mps 479 mmHg 71%
18:00 +3°C° 0.1 mm 6 mps 479 mmHg 76%
19:00 +3°C° 0.1 mm 5 mps 479 mmHg 81%
20:00 +2°C° 0.1 mm 5 mps 480 mmHg 83%
21:00 +2°C° 0.1 mm 5 mps 480 mmHg 85%
22:00 +2°C° 0.1 mm 5 mps 480 mmHg 88%
23:00 +2°C° 0.3 mm 5 mps 480 mmHg 89%
Show more